Location: Hylo
(54.6785°N, 112.2142°W)
Time: 11:36:34
(UTC+00:00)

ARIANE 6 FM1 Upper Stage - Visible Passes

Search period start: 20 September 2024 00:00
Search period end: 30 September 2024 00:00
Orbit: 566 x 594 km, 62.0° (Epoch: 19 September)

Date Brightness Start Highest point End Pass type
(mag) Time Alt. Az. Time Alt. Az. Time Alt. Az.
20 Sep 4.7 03:52:43 10° SSW 03:53:46 16° SSW 03:53:46 16° SSW visible
20 Sep 5.0 08:58:58 19° ENE 08:58:58 19° ENE 09:00:27 10° E visible
20 Sep 2.6 10:35:24 63° W 10:36:00 76° SW 10:40:22 10° SE visible
20 Sep 4.3 12:11:54 10° W 12:14:44 17° WSW 12:17:34 10° SSW visible
21 Sep 4.6 02:21:17 10° SE 02:22:52 12° ESE 02:23:53 11° E visible
21 Sep 3.2 03:57:10 10° SSW 04:00:18 43° S 04:00:18 43° S visible
21 Sep 5.6 05:36:43 10° W 05:36:43 10° W 05:36:43 10° W visible
21 Sep 3.6 10:42:09 36° SSE 10:42:09 36° SSE 10:44:56 10° SSE visible
21 Sep 4.6 12:18:37 11° WSW 12:19:09 12° WSW 12:20:41 10° SW visible
22 Sep 4.2 02:24:28 10° SSE 02:27:17 17° ESE 02:29:51 11° E visible
22 Sep 2.6 04:01:44 10° SW 04:06:02 78° SE 04:06:15 75° ESE visible
22 Sep 5.3 05:41:39 10° W 05:42:37 16° W 05:42:37 16° W visible
22 Sep 5.2 10:49:17 10° SSE 10:49:17 10° SSE 10:49:21 10° SSE visible
23 Sep 3.8 02:28:16 10° S 02:31:45 25° SE 02:35:16 10° ENE visible
23 Sep 2.8 04:06:25 10° WSW 04:10:44 79° NNW 04:11:40 54° NE visible
23 Sep 5.2 05:46:36 10° W 05:48:01 19° WNW 05:48:01 19° WNW visible
24 Sep 3.4 02:32:22 10° SSW 02:36:16 34° SE 02:40:12 10° ENE visible
24 Sep 3.1 04:11:11 10° WSW 04:15:28 62° NNW 04:16:43 42° NNE visible
24 Sep 5.2 05:51:32 10° WNW 05:53:03 19° WNW 05:53:03 19° WNW visible
25 Sep 3.0 02:36:41 10° SSW 02:40:49 48° SE 02:45:00 10° ENE visible
25 Sep 3.6 04:16:01 10° WSW 04:20:13 49° NNW 04:21:32 36° NNE visible
25 Sep 5.3 05:56:26 10° WNW 05:57:50 18° NW 05:57:50 18° NW visible
26 Sep 2.7 02:41:08 10° SW 02:45:24 68° SE 02:49:44 10° NE visible
26 Sep 3.9 04:20:54 10° W 04:25:00 41° NNW 04:26:11 34° NNE visible
26 Sep 5.4 06:01:18 10° WNW 06:02:29 17° NW 06:02:29 17° NW visible
27 Sep 2.7 02:45:44 10° SW 02:50:02 90° NNE 02:54:24 10° NE visible
27 Sep 4.1 04:25:48 10° W 04:29:49 36° NNW 04:30:43 32° NNE visible
27 Sep 5.6 06:06:06 10° WNW 06:07:01 15° NW 06:07:01 15° NW visible
28 Sep 3.0 02:50:24 10° WSW 02:54:42 69° NNW 02:58:53 11° NE visible
28 Sep 4.2 04:30:41 10° WNW 04:34:38 33° N 04:35:10 32° N visible
28 Sep 5.7 06:10:51 10° NW 06:11:28 13° NW 06:11:28 13° NW visible
29 Sep 3.4 02:55:10 10° WSW 02:59:24 55° NNW 03:03:18 12° NE visible
29 Sep 4.3 04:35:34 10° WNW 04:39:27 31° N 04:39:35 31° N visible
29 Sep 5.8 06:15:32 10° NW 06:15:52 12° NW 06:15:52 12° NW visible
